Albany, New York
Traffic Map
Current Weather Conditions
Albany, New York
Scattered Clouds
Scattered Clouds
21°
Feels Like: 21°
Wind Chill: 21° Ceiling: Unl
Heat Index: 21° Visibility: 10mi
Dew Point: 18° Wind: 8mph
Humidity: 81% Direction: 160° (SSE)
Pressure: 29.96in Gusts: 0mph
Raw Report DataKALB 280351Z 16007KT 10SM SCT036 SCT090 21/18 A2996 RMK AO2 SLP144 T02110178
Traffic Incident Summary
Active as of:
Severity:
Category:
InformationThere was an issue retrieving the traffic information for this location. Please try a different location or try again shortly.
Advertisements
Track Severe Weather on mobile